Evergreen, AL

4:09 PM CDT on April 30, 2017 (GMT -0500)
Middleton

Weather History for KGZH - December, 2012

Change the Weather History Date:

Friday, December 21, 2012

  Actual Average (KPRN) Record (KPRN)
Temperature  
Mean Temperature 44 °F -  
Max Temperature 54 °F 62 °F 77 °F (1978)
Min Temperature 33 °F 40 °F 20 °F (1935)
Degree Days  
Heating Degree Days 22    
Moisture  
Dew Point 19 °F    
Average Humidity 42    
Maximum Humidity 78    
Minimum Humidity 18    
Precipitation  
Precipitation 0.00 in - - ()
Sea Level Pressure  
Sea Level Pressure 30.27 in    
Wind  
Wind Speed 6 mph (NW)    
Max Wind Speed 14 mph    
Max Gust Speed 24 mph    
Visibility 10 miles    
Events      
Averages and records for this station are not official NWS values.
T = Trace of Precipitation, MM = Missing Value Source: NWS Daily Summary

Daily Weather History Graph

Daily Weather History Graph

Search for Another Location

Airport or City:

Trip Planner

Search our weather history database for the weather conditions in past years. The results will help you decide how hot, cold, wet, or windy it might be!

Date:

Astronomy

Dec. 21, 2012 Rise Set
Actual Time 6:43 AM CST 4:49 PM CST
Civil Twilight 6:16 AM CST 5:16 PM CST
Nautical Twilight 5:46 AM CST 5:46 PM CST
Astronomical Twilight 5:16 AM CST 6:16 PM CST
Moon 12:22 PM CST (12/21) 12:45 AM CST (12/21)
Length of Visible Light 10h 59m
Length of Day
10h 06m
Waxing Gibbous, 65% of the Moon is Illuminated
Dec 21
Waxing Gibbous
Dec 28
Full
Jan 4
Last Quarter
Jan 11
New
Jan 18
First Quarter

Hourly Weather History & Observations

Time (CST) Temp. Windchill Dew Point Humidity Pressure Visibility Wind Dir Wind Speed Gust Speed Precip Events Conditions
12:53 AM 42.1 °F 40.2 °F 25.0 °F 51% 30.17 in 10.0 mi WNW 3.5 mph - N/A   Clear
1:53 AM 42.1 °F 37.1 °F 21.9 °F 45% 30.18 in 10.0 mi NW 8.1 mph 18.4 mph N/A   Clear
2:53 AM 41.0 °F 38.0 °F 21.0 °F 45% 30.20 in 10.0 mi Variable 4.6 mph - N/A   Clear
3:53 AM 39.0 °F 34.0 °F 21.0 °F 49% 30.21 in 10.0 mi NW 6.9 mph - N/A   Clear
4:53 AM 39.0 °F 33.4 °F 19.9 °F 46% 30.20 in 10.0 mi NNW 8.1 mph - N/A   Clear
5:53 AM 37.9 °F 30.9 °F 19.0 °F 47% 30.22 in 10.0 mi NNW 10.4 mph 17.3 mph N/A   Clear
6:53 AM 37.9 °F 32.7 °F 19.0 °F 47% 30.26 in 10.0 mi NW 6.9 mph - N/A   Clear
7:53 AM 39.9 °F 33.9 °F 19.9 °F 45% 30.27 in 10.0 mi NW 9.2 mph - N/A   Clear
8:53 AM 43.0 °F 37.7 °F 17.1 °F 35% 30.30 in 10.0 mi NNW 9.2 mph 20.7 mph N/A   Clear
9:53 AM 46.0 °F 40.6 °F 16.0 °F 30% 30.30 in 10.0 mi NNW 11.5 mph 21.9 mph N/A   Clear
10:53 AM 48.9 °F - 12.9 °F 24% 30.30 in 10.0 mi NW 10.4 mph 21.9 mph N/A   Clear
11:53 AM 52.0 °F - 10.9 °F 19% 30.27 in 9.0 mi Variable 5.8 mph 21.9 mph N/A   Clear
12:53 PM 53.1 °F - 10.9 °F 19% 30.25 in 10.0 mi NNW 13.8 mph 24.2 mph N/A   Clear
1:53 PM 54.0 °F - 10.9 °F 18% 30.24 in 10.0 mi NW 11.5 mph 19.6 mph N/A   Clear
2:53 PM 53.1 °F - 10.0 °F 18% 30.24 in 10.0 mi NNW 11.5 mph 21.9 mph N/A   Clear
3:53 PM 52.0 °F - 12.9 °F 21% 30.24 in 10.0 mi Variable 6.9 mph - N/A   Clear
4:53 PM 48.0 °F - 16.0 °F 28% 30.26 in 10.0 mi West 3.5 mph - N/A   Clear
5:53 PM 39.0 °F - 26.1 °F 60% 30.28 in 7.0 mi Calm Calm - N/A   Clear
6:53 PM 36.0 °F - 27.0 °F 70% 30.30 in 10.0 mi Calm Calm - N/A   Clear
7:53 PM 33.1 °F 30.0 °F 27.0 °F 78% 30.32 in 7.0 mi NW 3.5 mph - N/A   Clear
8:53 PM 36.0 °F 33.3 °F 23.0 °F 59% 30.33 in 10.0 mi NW 3.5 mph - N/A   Clear
9:53 PM 37.9 °F - 21.0 °F 51% 30.34 in 10.0 mi Calm Calm - N/A   Clear
10:53 PM 37.0 °F 34.5 °F 19.9 °F 50% 30.35 in 10.0 mi Variable 3.5 mph - N/A   Clear
11:53 PM 35.1 °F - 21.0 °F 57% 30.34 in 10.0 mi Calm Calm - N/A   Clear